Regional Weather Roundup
Issued by NWS Northern Indiana

Home | Current Version | Previous Version | Graphics & Text | Print | Product List | Glossary On
Versions: 1 2 3 4 5 6 7 8 9 10 11 12 13 14 15 16 17 18 19 20 21 22 23 24 25 26 27 28 29 30 31 32 33 34 35 36 37 38 39 40 41 42 43 44 45 46 47 48 49 50
000
ASUS43 KIWX 281010
RWRIWX

KIWX WEATHER ROUNDUP
NATIONAL WEATHER SERVICE NORTHERN INDIANA
600 AM EDT THU AUG 28 2014

NOTE: "FAIR" INDICATES FEW OR NO CLOUDS BELOW 12,000 FEET WITH NO
SIGNIFICANT WEATHER AND/OR OBSTRUCTIONS TO VISIBILITY.

* THESE STATIONS ARE NOT UNDER NWS QUALITY CONTROL. THEY ALSO MAY NOT
  REPORT WEATHER SUCH AS PRECIPITATION OR FOG.

INZ001>027-281100-
NORTHERN INDIANA

CITY           SKY/WX    TMP DP  RH WIND       PRES   REMARKS
GARY*          PTCLDY    68  57  68 NE14      30.13S
VALPARAISO     CLEAR     59  55  87 NE5       30.14R
MICHIGAN CITY* PTCLDY    55  55 100 CALM      30.14S
LAPORTE*       PTCLDY    59  55  88 NE6       30.14S
KNOX*          PTCLDY    60  56  88 NE5       30.13S
SOUTH BEND     CLEAR     60  55  83 E3        30.15R
GOSHEN         CLEAR     60  55  83 CALM      30.13R
MONTICELLO*    CLOUDY    63  61  94 NE6       30.10F
LOGANSPORT*    PTCLDY    61  59  94 NE3       30.12S
ROCHESTER*     CLEAR     61  61 100 CALM      30.13S
WARSAW*        PTCLDY    59  59 100 CALM      30.14R
ANGOLA*        CLEAR     59  55  88 CALM      30.14S
FORT WAYNE     PTCLDY    62  59  90 N3        30.13R
HUNTINGTON*    CLEAR     60  59  97 CALM      30.13R
PERU/GRISSOM   MOCLDY    63  63 100 NE8       30.12R
MARION*        PTCLDY    62  59  91 NE3       30.12R

$$
INZ028>050-281100-
CENTRAL INDIANA

CITY           SKY/WX    TMP DP  RH WIND       PRES   REMARKS
LAFAYETTE      MOCLDY    64  61  90 NE9       30.10S
KOKOMO*        PTCLDY    64  61  88 NE5       30.12R
MUNCIE*        CLEAR     63  60  90 N3        30.11R
INDIANAPOLIS   CLEAR     67  62  84 NE8       30.08R

$$
MIZ043>046-050>051-056>058-064>065-071>073-077>080-281100-
SOUTHWEST LOWER MICHIGAN

CITY           SKY/WX    TMP DP  RH WIND       PRES   REMARKS
BATTLE CREEK   CLEAR     56  51  84 NE3       30.16R
BENTON HARBOR  PTCLDY    57  52  83 NE7       30.14S
COLDWATER*     MOCLDY    60  57  92 NE6       30.15R
HILLSDALE*     CLOUDY    61  61 100 CALM      30.15R
HOLLAND        CLEAR     56  52  86 NE6       30.17S
GRAND RAPIDS   CLEAR     54  53  97 NE5       30.18R
KALAMAZOO      CLEAR     56  51  84 N3        30.16R
STURGIS*       CLEAR     57  55  94 NE5       30.14R
THREE RIVERS*  FAIR      58  53  85 CALM      30.15S

$$
OHZ001>008-015>018-024>025-281100-
NORTHWEST OHIO

CITY           SKY/WX    TMP DP  RH WIND       PRES   REMARKS
WAUSEON*       CLOUDY    59  57  94 NE7       30.14S
DEFIANCE       PTCLDY    61  58  90 NE6       30.13R
FINDLAY        PTCLDY    65  61  87 NE7       30.11S
TOLEDO EXPRESS CLOUDY    62  57  83 N3        30.13R
TOLEDO METCALF CLOUDY    65  57  75 NE5       30.14R
LIMA           CLEAR     62  60  93 CALM      30.12R FOG

$$
&&



USA.gov is the U.S. government's official web portal to all federal, state and local government web resources and services.